TimeMST,TemperatureF,Dew PointF,Humidity,Sea Level PressureIn,VisibilityMPH,Wind Direction,Wind SpeedMPH,Gust SpeedMPH,PrecipitationIn,Events,Conditions,WindDirDegrees,DateUTC
12:05 AM,3.2,-0.4,85,29.90,10.0,West,5.8,-,N/A,,Mostly Cloudy,280,2012-11-11 07:05:00
12:16 AM,3.2,1.4,92,29.90,10.0,West,6.9,-,N/A,,Partly Cloudy,280,2012-11-11 07:16:00
12:53 AM,-0.9,-2.9,91,30.12,10.0,West,4.6,-,N/A,,Clear,260,2012-11-11 07:53:00
1:53 AM,3.0,1.0,91,30.10,10.0,West,9.2,-,N/A,,Clear,260,2012-11-11 08:53:00
2:53 AM,3.0,-0.0,87,30.10,10.0,West,8.1,-,N/A,,Clear,260,2012-11-11 09:53:00
3:53 AM,3.9,1.0,88,30.11,10.0,WSW,10.4,-,N/A,,Clear,250,2012-11-11 10:53:00
4:53 AM,6.1,1.9,83,30.11,10.0,WSW,12.7,-,N/A,,Clear,250,2012-11-11 11:53:00
5:53 AM,8.1,3.9,83,30.11,10.0,West,11.5,-,N/A,,Mostly Cloudy,260,2012-11-11 12:53:00
6:53 AM,9.0,5.0,84,30.12,10.0,WSW,11.5,-,N/A,,Overcast,250,2012-11-11 13:53:00
7:53 AM,10.0,5.0,80,30.12,10.0,WSW,13.8,-,N/A,,Overcast,250,2012-11-11 14:53:00
8:53 AM,12.0,7.0,80,30.15,10.0,West,11.5,-,N/A,,Overcast,260,2012-11-11 15:53:00
9:53 AM,14.0,9.0,80,30.17,10.0,West,11.5,-,N/A,,Overcast,260,2012-11-11 16:53:00
10:53 AM,16.0,9.0,74,30.18,10.0,West,16.1,-,N/A,,Scattered Clouds,270,2012-11-11 17:53:00
11:53 AM,17.1,10.9,77,30.18,10.0,West,12.7,-,0.01,,Scattered Clouds,260,2012-11-11 18:53:00
12:53 PM,19.0,12.0,74,30.18,10.0,WNW,15.0,-,N/A,,Clear,300,2012-11-11 19:53:00
1:53 PM,19.9,12.0,71,30.17,10.0,WNW,13.8,-,N/A,,Clear,300,2012-11-11 20:53:00
2:53 PM,19.9,12.0,71,30.19,10.0,WNW,16.1,-,N/A,,Clear,300,2012-11-11 21:53:00
3:53 PM,18.0,10.9,74,30.21,10.0,WNW,9.2,-,N/A,,Clear,300,2012-11-11 22:53:00
4:53 PM,17.1,10.0,74,30.22,10.0,WNW,9.2,-,N/A,,Partly Cloudy,290,2012-11-11 23:53:00
5:53 PM,15.1,10.0,80,30.23,10.0,West,10.4,-,N/A,,Mostly Cloudy,260,2012-11-12 00:53:00
6:53 PM,14.0,9.0,80,30.24,10.0,WSW,12.7,-,N/A,,Clear,250,2012-11-12 01:53:00
7:53 PM,14.0,8.1,77,30.25,10.0,West,13.8,-,N/A,,Clear,260,2012-11-12 02:53:00
8:53 PM,14.0,7.0,74,30.26,10.0,West,12.7,-,N/A,,Clear,260,2012-11-12 03:53:00
9:53 PM,14.0,7.0,74,30.27,10.0,West,13.8,-,N/A,,Clear,260,2012-11-12 04:53:00
10:53 PM,14.0,6.1,71,30.27,10.0,WSW,13.8,-,N/A,,Clear,250,2012-11-12 05:53:00
11:53 PM,10.9,3.9,73,30.29,10.0,West,4.6,-,N/A,,Clear,260,2012-11-12 06:53:00